Voltar ao catálogo

THORAD DELTA 1 DEB

AtivoSSO
NORAD 8306·DEBRIS·🇺🇸 United States

Lançado Nov 15, 1974 de Vandenberg Space Force Base

Loading…

Próximas Passagens (próximas 24 horas)

TLE

AtualizadoSource: Space-Track

Época: Sep 14, 2026, 08:32 UTC

1 08306U 74089BP  26257.35566208  .00000377  00000-0  26985-2 0  9991
2 08306 101.9964  33.2498 0074559 321.6630  64.6036 12.51659659358111

Acompanhe THORAD DELTA 1 DEB em tempo real com AllMySat

Download on the App Store